Flag for Germany Weather past 2 weeks in Eckernförde, Schleswig-Holstein, Germany

Now
45 °F

Light rain. Low clouds.


Feels Like: 40 °F
Forecast: 46 / 50 °F
Wind: 12 mph from Southwest

Location: Schleswig

Current Time: Dec 21, 2014 at 11:47:34 PM

Latest Report: Dec 21, 2014 at 11:00 PM


Visibility: 1 mi

Pressure: 29.78 "Hg

Humidity: 99%

Dew point: 45 °F

Location of EckernfördeLocation

Historic Weather in Eckernförde — Graph

°F

Eckernförde temperature yesterday

Maximum temperature yesterday: 44 °F (at 7:00 AM)
Minimum temperature yesterday: 38 °F (at 9:00 AM)
Average temperature yesterday: 41 °F

Past Weeks' High & Low Weather Summary

 TemperatureHumidityPressure
High51 °F (Dec 18, 9:00 PM)100% (Dec 7, 7:00 AM)30.27 "Hg (Dec 7, 7:00 AM)
Low32 °F (Dec 14, 7:00 AM)75% (Dec 20, 4:00 PM)29.03 "Hg (Dec 12, 1:00 PM)
Average39 °F94%29.73 "Hg
* Reported Dec 6 9:00 PM — Dec 21 9:00 PM, Eckernförde, Weather by CustomWeather, © 2014

Note: Actual official high and low records may vary slightly from our data, if they occured in-between our weather recording intervals... More about our weather records

Advertising

Eckernförde weather history for previous 24 hours

 ConditionsComfort  
Time TempWeatherWind HumidityBarometerVisibility
9:00 PM
Dec 21
45 °FLight rain. Low clouds.10 mph99%29.83 "Hg4 mi
8:00 PM44 °FLight rain. Low clouds.9 mph99%29.85 "Hg3 mi
7:00 PM44 °FLight rain. Low clouds.8 mph96%29.89 "Hg6 mi
6:00 PM44 °FLow clouds.8 mph94%29.92 "Hg9 mi
5:00 PM44 °FLow clouds.9 mph94%29.94 "Hg12 mi
3:00 PM43 °FLight rain. Low clouds.10 mph96%30.00 "Hg7 mi
2:00 PM43 °FLow clouds.8 mph97%30.03 "Hg6 mi
1:00 PM43 °FLow clouds.8 mph96%30.06 "Hg6 mi
12:00 PM42 °FLight rain. Low clouds.7 mph95%30.09 "Hg6 mi
11:00 AM42 °FOvercast.5 mph91%30.11 "Hg11 mi
9:00 AM40 °FPartly sunny.3 mph90%30.13 "Hg14 mi
8:00 AM40 °FPassing clouds.5 mph86%30.13 "Hg14 mi
7:00 AM40 °FPassing clouds.6 mph87%30.13 "Hg14 mi
6:00 AM41 °FPassing clouds.6 mph88%30.11 "Hg19 mi
5:00 AM41 °FPassing clouds.6 mph86%30.09 "Hg16 mi
3:00 AM42 °FPassing clouds.8 mph86%30.06 "Hg16 mi
2:00 AM42 °FPassing clouds.8 mph84%30.02 "Hg16 mi
1:00 AM41 °FPassing clouds.8 mph86%29.98 "Hg16 mi
12:00 AM40 °FClear.7 mph88%29.95 "Hg16 mi
11:00 PM
Dec 20
39 °FPassing clouds.6 mph88%29.91 "Hg22 mi
Weather by CustomWeather, © 2014

See weather overviewHow to use our weather pages